Terminal Aerodrome Forecast
Issued by NWS

Home | Current Version | Previous Version | Text Only | Print | Product List | Glossary Off
Versions: 1 2 3 4 5 6 7 8 9 10 11 12 13 14 15 16 17 18 19 20 21

000
FTUS43 KTOP 151700
TAFMHK
TAF
KMHK 151730Z 1518/1618 30015G22KT P6SM OVC012
     FM152100 30015G23KT P6SM OVC025
     FM161200 33013KT P6SM SCT030=

USA.gov is the U.S. government's official web portal to all federal, state and local government web resources and services.